RYR719 EGKK-LEIB

Flight info

Callsign RYR719
Flight time 2h 0m
Altitude 35000
Route SFD Y47 DRAKE L151 SITET UN859 SOPIL DCT BALAN DCT EVPOK DCT NARAK DCT GAI DCT LOMRA DCT ROCAN/N0455F310 DCT PUMAL DCT XEPLA DCT BCN DCT CORDA
Aircraft B38M/M-SDE1FGHILORVWXY/HB1

Departure

Time 2026-05-08 05:07
Airport London Gatwick Airport (EGKK)

Arrival

Time 2026-05-08 07:08
Airport Ibiza Airport (LEIB)
Time Latitude Longitude Altitude Speed Heading
2026-05-08 04:16 51.15967 -0.17141 214 ft 0 kts 322°
2026-05-08 04:54 51.15961 -0.17133 218 ft 4 kts 322°
2026-05-08 04:55 51.15940 -0.17106 213 ft 4 kts 322°
2026-05-08 04:55 51.15923 -0.17085 215 ft 4 kts 317°
2026-05-08 04:55 51.15911 -0.17055 213 ft 4 kts 263°
2026-05-08 04:55 51.15923 -0.17026 210 ft 4 kts 224°
2026-05-08 04:56 51.15930 -0.17015 216 ft 0 kts 224°
2026-05-08 04:57 51.15930 -0.17016 216 ft 1 kts 224°
2026-05-08 04:58 51.15913 -0.17037 212 ft 6 kts 212°
2026-05-08 04:58 51.15879 -0.17062 216 ft 4 kts 204°
2026-05-08 04:58 51.15846 -0.17082 206 ft 6 kts 200°
2026-05-08 04:58 51.15815 -0.17127 206 ft 7 kts 241°
2026-05-08 04:59 51.15800 -0.17206 210 ft 9 kts 257°
2026-05-08 04:59 51.15783 -0.17333 206 ft 16 kts 258°
2026-05-08 04:59 51.15734 -0.17494 215 ft 17 kts 193°
2026-05-08 04:59 51.15642 -0.17470 213 ft 14 kts 167°
2026-05-08 05:00 51.15532 -0.17431 217 ft 19 kts 167°
2026-05-08 05:00 51.15388 -0.17379 217 ft 23 kts 167°
2026-05-08 05:00 51.15252 -0.17350 206 ft 19 kts 201°
2026-05-08 05:00 51.15205 -0.17515 206 ft 15 kts 258°
2026-05-08 05:01 51.15183 -0.17686 212 ft 16 kts 258°
2026-05-08 05:01 51.15160 -0.17872 215 ft 18 kts 259°
2026-05-08 05:01 51.15131 -0.18070 208 ft 19 kts 256°
2026-05-08 05:01 51.15103 -0.18298 207 ft 22 kts 258°
2026-05-08 05:02 51.15067 -0.18549 210 ft 24 kts 257°
2026-05-08 05:02 51.15027 -0.18817 214 ft 26 kts 257°
2026-05-08 05:02 51.14985 -0.19098 215 ft 26 kts 257°
2026-05-08 05:02 51.14946 -0.19377 211 ft 27 kts 258°
2026-05-08 05:03 51.14907 -0.19676 208 ft 28 kts 258°
2026-05-08 05:03 51.14867 -0.19993 212 ft 30 kts 258°
2026-05-08 05:03 51.14816 -0.20332 204 ft 32 kts 256°
2026-05-08 05:03 51.14764 -0.20673 205 ft 25 kts 259°
2026-05-08 05:04 51.14744 -0.20857 207 ft 16 kts 259°
2026-05-08 05:04 51.14723 -0.21032 217 ft 17 kts 258°
2026-05-08 05:04 51.14696 -0.21222 216 ft 18 kts 250°
2026-05-08 05:04 51.14650 -0.21334 210 ft 7 kts 205°
2026-05-08 05:05 51.14632 -0.21333 209 ft 0 kts 167°
2026-05-08 05:05 51.14630 -0.21332 208 ft 1 kts 167°
2026-05-08 05:06 51.14613 -0.21326 206 ft 4 kts 167°
2026-05-08 05:06 51.14582 -0.21310 214 ft 6 kts 155°
2026-05-08 05:06 51.14539 -0.21259 209 ft 10 kts 129°
2026-05-08 05:06 51.14525 -0.21148 205 ft 12 kts 77°
2026-05-08 05:07 51.14554 -0.20945 213 ft 39 kts 77°
2026-05-08 05:07 51.14669 -0.20085 216 ft 118 kts 77°
2026-05-08 05:07 51.14891 -0.18461 262 ft 176 kts 77°
2026-05-08 05:07 51.15160 -0.16472 1018 ft 187 kts 78°
2026-05-08 05:08 51.15442 -0.14498 2193 ft 182 kts 80°
2026-05-08 05:08 51.15738 -0.12402 2823 ft 205 kts 79°
2026-05-08 05:08 51.16053 -0.10063 3428 ft 228 kts 84°
2026-05-08 05:08 51.15799 -0.07496 4013 ft 245 kts 120°
2026-05-08 05:09 51.14608 -0.05505 4784 ft 258 kts 152°
2026-05-08 05:09 51.12904 -0.04642 5422 ft 264 kts 169°
2026-05-08 05:09 51.11104 -0.04068 5510 ft 263 kts 168°
2026-05-08 05:09 51.09322 -0.03438 5643 ft 263 kts 164°
2026-05-08 05:10 51.07563 -0.02609 5790 ft 263 kts 163°
2026-05-08 05:10 51.04062 -0.00978 6045 ft 266 kts 164°
2026-05-08 05:10 51.02286 -0.00140 6065 ft 267 kts 163°
2026-05-08 05:11 51.00501 0.00708 6029 ft 268 kts 163°
2026-05-08 05:11 50.98715 0.01554 6040 ft 268 kts 163°
2026-05-08 05:11 50.96929 0.02398 6044 ft 268 kts 163°
2026-05-08 05:11 50.95142 0.03242 6049 ft 267 kts 163°
2026-05-08 05:12 50.93361 0.04082 6057 ft 267 kts 163°
2026-05-08 05:12 50.91578 0.04922 6065 ft 267 kts 163°
2026-05-08 05:12 50.89793 0.05763 6069 ft 268 kts 163°
2026-05-08 05:12 50.88007 0.06603 6068 ft 268 kts 163°
2026-05-08 05:13 50.86221 0.07441 6067 ft 267 kts 164°
2026-05-08 05:13 50.84464 0.08265 6065 ft 267 kts 164°
2026-05-08 05:13 50.82686 0.09099 6064 ft 267 kts 164°
2026-05-08 05:13 50.80905 0.09933 6063 ft 267 kts 164°
2026-05-08 05:14 50.79126 0.10765 6062 ft 267 kts 163°
2026-05-08 05:14 50.77343 0.11596 6062 ft 268 kts 165°
2026-05-08 05:14 50.75501 0.11808 6482 ft 267 kts 191°
2026-05-08 05:14 50.73681 0.11196 7449 ft 270 kts 192°
2026-05-08 05:15 50.71828 0.10579 8407 ft 274 kts 193°
2026-05-08 05:15 50.69953 0.09934 9393 ft 278 kts 194°
2026-05-08 05:15 50.68049 0.09264 10319 ft 283 kts 194°
2026-05-08 05:15 50.66076 0.08560 10852 ft 301 kts 194°
2026-05-08 05:16 50.63966 0.07801 11255 ft 321 kts 194°
2026-05-08 05:16 50.61719 0.06992 11610 ft 341 kts 194°
2026-05-08 05:16 50.59337 0.06132 11929 ft 360 kts 194°
2026-05-08 05:16 50.56847 0.05233 12378 ft 373 kts 194°
2026-05-08 05:17 50.54312 0.04320 13174 ft 375 kts 194°
2026-05-08 05:17 50.51753 0.03399 13899 ft 379 kts 194°
2026-05-08 05:17 50.49174 0.02473 14558 ft 382 kts 194°
2026-05-08 05:17 50.46563 0.01535 15212 ft 385 kts 193°
2026-05-08 05:18 50.43942 0.00595 15855 ft 388 kts 193°
2026-05-08 05:18 50.41294 -0.00353 16490 ft 392 kts 193°
2026-05-08 05:18 50.38618 -0.01312 17102 ft 395 kts 193°
2026-05-08 05:18 50.35929 -0.02273 17708 ft 399 kts 193°
2026-05-08 05:19 50.33247 -0.03230 18308 ft 402 kts 193°
2026-05-08 05:19 50.30507 -0.04209 18819 ft 405 kts 193°
2026-05-08 05:19 50.27752 -0.05190 19337 ft 408 kts 193°
2026-05-08 05:19 50.24975 -0.06179 19847 ft 411 kts 193°
2026-05-08 05:20 50.22135 -0.06761 20334 ft 414 kts 179°
2026-05-08 05:20 50.19284 -0.06033 20841 ft 420 kts 163°
2026-05-08 05:20 50.16550 -0.04356 21321 ft 424 kts 159°
2026-05-08 05:20 50.13826 -0.02561 21784 ft 427 kts 158°
2026-05-08 05:21 50.11087 -0.00714 22257 ft 430 kts 159°
2026-05-08 05:21 50.08239 0.00720 22644 ft 432 kts 168°
2026-05-08 05:21 50.05308 0.01858 23106 ft 435 kts 167°
2026-05-08 05:21 50.02362 0.03018 23544 ft 438 kts 168°
2026-05-08 05:22 49.99392 0.04187 23932 ft 441 kts 168°
2026-05-08 05:22 49.96442 0.05348 24325 ft 443 kts 168°
2026-05-08 05:22 49.93453 0.06523 24737 ft 444 kts 168°
2026-05-08 05:22 49.90452 0.07701 25125 ft 446 kts 168°
2026-05-08 05:23 49.87430 0.08885 25499 ft 448 kts 168°
2026-05-08 05:23 49.84393 0.10074 25871 ft 450 kts 168°
2026-05-08 05:23 49.81351 0.11263 26241 ft 452 kts 168°
2026-05-08 05:23 49.78294 0.12457 26589 ft 454 kts 168°
2026-05-08 05:24 49.75223 0.13654 26945 ft 456 kts 168°
2026-05-08 05:24 49.72135 0.14856 27294 ft 458 kts 168°
2026-05-08 05:24 49.69041 0.16065 27659 ft 459 kts 167°
2026-05-08 05:24 49.65956 0.17315 28120 ft 458 kts 167°
2026-05-08 05:25 49.62876 0.18557 28593 ft 456 kts 167°
2026-05-08 05:25 49.59809 0.19791 29068 ft 455 kts 167°
2026-05-08 05:25 49.56748 0.21021 29531 ft 453 kts 167°
2026-05-08 05:25 49.53695 0.22246 30007 ft 452 kts 167°
2026-05-08 05:26 49.50657 0.23463 30361 ft 452 kts 168°
2026-05-08 05:26 49.47608 0.24683 30616 ft 454 kts 168°
2026-05-08 05:26 49.44551 0.25905 30928 ft 454 kts 168°
2026-05-08 05:26 49.41487 0.27128 31240 ft 455 kts 168°
2026-05-08 05:27 49.38424 0.28349 31552 ft 455 kts 168°
2026-05-08 05:27 49.35353 0.29572 31859 ft 456 kts 168°
2026-05-08 05:27 49.32323 0.30777 32157 ft 456 kts 168°
2026-05-08 05:27 49.29219 0.32085 32460 ft 457 kts 167°
2026-05-08 05:28 49.26182 0.33373 32681 ft 460 kts 167°
2026-05-08 05:28 49.23090 0.34676 32965 ft 461 kts 168°
2026-05-08 05:28 49.19999 0.35975 33067 ft 462 kts 168°
2026-05-08 05:29 49.13821 0.38568 33045 ft 459 kts 168°
2026-05-08 05:29 49.07648 0.41151 33018 ft 460 kts 168°
2026-05-08 05:30 49.01445 0.43740 33038 ft 463 kts 168°
2026-05-08 05:30 48.95245 0.46321 33040 ft 460 kts 168°
2026-05-08 05:31 48.89077 0.48883 33037 ft 460 kts 168°
2026-05-08 05:31 48.82891 0.51445 33036 ft 460 kts 168°
2026-05-08 05:32 48.76700 0.53935 33041 ft 460 kts 168°
2026-05-08 05:32 48.73599 0.55152 33178 ft 461 kts 168°
2026-05-08 05:32 48.70529 0.56359 33511 ft 460 kts 168°
2026-05-08 05:32 48.67426 0.57578 33809 ft 461 kts 168°
2026-05-08 05:33 48.64316 0.58799 34081 ft 461 kts 169°
2026-05-08 05:33 48.61209 0.60017 34273 ft 463 kts 169°
2026-05-08 05:33 48.58080 0.61242 34512 ft 464 kts 168°
2026-05-08 05:33 48.54958 0.62463 34773 ft 463 kts 168°
2026-05-08 05:34 48.51845 0.63701 34996 ft 463 kts 168°
2026-05-08 05:34 48.45611 0.66242 35026 ft 463 kts 168°
2026-05-08 05:35 48.39376 0.68768 35031 ft 464 kts 168°
2026-05-08 05:35 48.33141 0.71287 35024 ft 464 kts 168°
2026-05-08 05:36 48.26897 0.73804 35025 ft 464 kts 168°
2026-05-08 05:36 48.20650 0.76270 35004 ft 465 kts 168°
2026-05-08 05:37 48.14372 0.78742 35023 ft 466 kts 168°
2026-05-08 05:37 48.08105 0.81204 35020 ft 466 kts 168°
2026-05-08 05:38 48.01869 0.83648 35014 ft 466 kts 168°
2026-05-08 05:38 47.95590 0.86102 35022 ft 466 kts 168°
2026-05-08 05:39 47.89317 0.88548 35009 ft 465 kts 168°
2026-05-08 05:39 47.83048 0.90984 35005 ft 465 kts 168°
2026-05-08 05:40 47.76773 0.93416 34995 ft 467 kts 168°
2026-05-08 05:40 47.71546 0.95437 35003 ft 468 kts 168°
2026-05-08 05:41 47.65242 0.97870 34996 ft 467 kts 168°
2026-05-08 05:41 47.58947 1.00292 34997 ft 467 kts 168°
2026-05-08 05:42 47.52638 1.02714 34998 ft 469 kts 168°
2026-05-08 05:42 47.46316 1.05136 34984 ft 469 kts 168°
2026-05-08 05:43 47.39940 1.06267 35012 ft 459 kts 185°
2026-05-08 05:43 47.33507 1.06201 34986 ft 463 kts 184°
2026-05-08 05:44 47.27056 1.06070 34986 ft 463 kts 184°
2026-05-08 05:44 47.20614 1.05921 34990 ft 463 kts 184°
2026-05-08 05:45 47.14164 1.05770 34978 ft 464 kts 184°
2026-05-08 05:45 47.07747 1.05620 34982 ft 464 kts 184°
2026-05-08 05:46 47.01282 1.05424 34974 ft 464 kts 185°
2026-05-08 05:46 46.94821 1.05140 34969 ft 464 kts 185°
2026-05-08 05:47 46.88359 1.04868 34981 ft 465 kts 185°
2026-05-08 05:47 46.81887 1.04596 34978 ft 465 kts 185°
2026-05-08 05:48 46.75409 1.04326 34978 ft 465 kts 185°
2026-05-08 05:48 46.68935 1.04055 34974 ft 465 kts 185°
2026-05-08 05:49 46.62466 1.03785 34969 ft 465 kts 185°
2026-05-08 05:49 46.55994 1.03517 34957 ft 465 kts 185°
2026-05-08 05:50 46.49562 1.04065 34965 ft 472 kts 169°
2026-05-08 05:50 46.43136 1.06191 34963 ft 474 kts 171°
2026-05-08 05:51 46.36705 1.08322 34967 ft 474 kts 170°
2026-05-08 05:51 46.30259 1.10469 34963 ft 476 kts 170°
2026-05-08 05:52 46.23803 1.12616 34967 ft 476 kts 170°
2026-05-08 05:52 46.17338 1.14760 34966 ft 476 kts 170°
2026-05-08 05:53 46.10904 1.16889 34966 ft 478 kts 171°
2026-05-08 05:53 46.04414 1.19031 34972 ft 478 kts 170°
2026-05-08 05:54 45.97954 1.21158 34961 ft 474 kts 170°
2026-05-08 05:54 45.91514 1.23273 34967 ft 476 kts 170°
2026-05-08 05:55 45.85047 1.25393 34970 ft 476 kts 171°
2026-05-08 05:55 45.78583 1.27506 34967 ft 476 kts 171°
2026-05-08 05:56 45.72152 1.29603 34965 ft 478 kts 171°
2026-05-08 05:56 45.65652 1.31719 34966 ft 478 kts 171°
2026-05-08 05:57 45.59160 1.33825 34962 ft 478 kts 171°
2026-05-08 05:57 45.52655 1.35933 34961 ft 481 kts 171°
2026-05-08 05:58 45.46161 1.38030 34961 ft 481 kts 171°
2026-05-08 05:58 45.39632 1.40134 34967 ft 481 kts 171°
2026-05-08 05:59 45.33093 1.42237 34967 ft 483 kts 171°
2026-05-08 05:59 45.26535 1.44341 34962 ft 483 kts 171°
2026-05-08 06:00 45.19977 1.46439 34963 ft 483 kts 171°
2026-05-08 06:00 45.13405 1.48537 34961 ft 486 kts 171°
2026-05-08 06:01 45.06806 1.50639 34969 ft 486 kts 171°
2026-05-08 06:01 45.00212 1.52735 34967 ft 486 kts 171°
2026-05-08 06:02 44.93638 1.54819 34954 ft 483 kts 172°
2026-05-08 06:02 44.87076 1.56894 34959 ft 483 kts 172°
2026-05-08 06:03 44.80546 1.58954 34964 ft 483 kts 172°
2026-05-08 06:03 44.73984 1.61020 34963 ft 483 kts 172°
2026-05-08 06:04 44.67422 1.63080 34963 ft 483 kts 172°
2026-05-08 06:04 44.60851 1.65140 34963 ft 483 kts 172°
2026-05-08 06:05 44.54271 1.67196 34968 ft 485 kts 172°
2026-05-08 06:05 44.47679 1.69252 34970 ft 485 kts 172°
2026-05-08 06:06 44.41123 1.71293 34964 ft 485 kts 172°
2026-05-08 06:06 44.34516 1.73344 34969 ft 487 kts 172°
2026-05-08 06:07 44.27881 1.75176 34971 ft 483 kts 176°
2026-05-08 06:07 44.21226 1.76623 34962 ft 484 kts 176°
2026-05-08 06:08 44.14567 1.78121 34962 ft 485 kts 176°
2026-05-08 06:08 44.07905 1.79620 34966 ft 485 kts 176°
2026-05-08 06:09 44.01241 1.81117 34930 ft 485 kts 176°
2026-05-08 06:09 43.94575 1.82448 34948 ft 479 kts 184°
2026-05-08 06:10 43.87914 1.82980 34961 ft 480 kts 182°
2026-05-08 06:10 43.81243 1.83633 34949 ft 481 kts 182°
2026-05-08 06:11 43.74622 1.84298 34961 ft 480 kts 182°
2026-05-08 06:11 43.67961 1.84967 34960 ft 480 kts 182°
2026-05-08 06:12 43.61306 1.85633 34937 ft 480 kts 183°
2026-05-08 06:12 43.54661 1.86298 34962 ft 478 kts 182°
2026-05-08 06:13 43.48028 1.86959 34967 ft 478 kts 182°
2026-05-08 06:13 43.41400 1.87619 34933 ft 478 kts 183°
2026-05-08 06:14 43.34795 1.88272 34969 ft 474 kts 183°
2026-05-08 06:14 43.28211 1.88900 34966 ft 474 kts 183°
2026-05-08 06:15 43.21623 1.89530 34969 ft 474 kts 183°
2026-05-08 06:15 43.15072 1.90155 34965 ft 471 kts 183°
2026-05-08 06:16 43.08572 1.90773 34978 ft 470 kts 183°
2026-05-08 06:16 43.02037 1.91394 34966 ft 472 kts 183°
2026-05-08 06:17 42.92260 1.92320 34966 ft 467 kts 184°
2026-05-08 06:17 42.85778 1.92932 34972 ft 467 kts 184°
2026-05-08 06:18 42.79297 1.93543 34966 ft 467 kts 184°
2026-05-08 06:18 42.72813 1.94152 34966 ft 467 kts 184°
2026-05-08 06:19 42.66326 1.94935 34969 ft 472 kts 178°
2026-05-08 06:19 42.59835 1.96304 34985 ft 472 kts 179°
2026-05-08 06:20 42.53404 1.97575 34987 ft 469 kts 180°
2026-05-08 06:20 42.46944 1.98837 34977 ft 469 kts 180°
2026-05-08 06:21 42.40485 2.00096 34996 ft 469 kts 180°
2026-05-08 06:21 42.34047 2.00978 34998 ft 461 kts 185°
2026-05-08 06:22 42.27637 2.01556 34998 ft 462 kts 184°
2026-05-08 06:22 42.21224 2.02178 34997 ft 462 kts 184°
2026-05-08 06:23 42.14811 2.02803 34997 ft 461 kts 184°
2026-05-08 06:23 42.08416 2.03425 35009 ft 461 kts 184°
2026-05-08 06:24 42.02015 2.04045 34991 ft 461 kts 184°
2026-05-08 06:24 41.95615 2.04665 34981 ft 461 kts 184°
2026-05-08 06:25 41.89251 2.05280 35000 ft 457 kts 184°
2026-05-08 06:25 41.82953 2.05887 34995 ft 457 kts 184°
2026-05-08 06:26 41.76608 2.06498 35000 ft 457 kts 184°
2026-05-08 06:26 41.70292 2.07104 35003 ft 455 kts 184°
2026-05-08 06:27 41.63975 2.07694 34989 ft 454 kts 184°
2026-05-08 06:27 41.57673 2.08281 34993 ft 454 kts 184°
2026-05-08 06:28 41.51379 2.08866 34990 ft 452 kts 184°
2026-05-08 06:28 41.45111 2.09448 34993 ft 451 kts 184°
2026-05-08 06:29 41.39900 2.09931 34989 ft 451 kts 184°
2026-05-08 06:29 41.33635 2.10510 34989 ft 451 kts 184°
2026-05-08 06:30 41.27389 2.11434 34997 ft 450 kts 180°
2026-05-08 06:30 41.21189 2.12491 34994 ft 449 kts 181°
2026-05-08 06:31 41.14985 2.13523 34993 ft 449 kts 181°
2026-05-08 06:31 41.08781 2.14553 34982 ft 448 kts 180°
2026-05-08 06:32 41.02600 2.15576 34996 ft 447 kts 180°
2026-05-08 06:32 40.96422 2.16597 34998 ft 447 kts 180°
2026-05-08 06:33 40.90244 2.17616 34987 ft 447 kts 180°
2026-05-08 06:33 40.84061 2.18634 34990 ft 447 kts 180°
2026-05-08 06:34 40.77895 2.19647 35000 ft 446 kts 180°
2026-05-08 06:34 40.71720 2.20659 34999 ft 446 kts 180°
2026-05-08 06:35 40.65598 2.21662 34995 ft 446 kts 180°
2026-05-08 06:35 40.59433 2.22669 34996 ft 446 kts 180°
2026-05-08 06:36 40.53273 2.23674 34994 ft 446 kts 180°
2026-05-08 06:36 40.47109 2.24677 34996 ft 446 kts 180°
2026-05-08 06:37 40.40947 2.25797 34982 ft 451 kts 175°
2026-05-08 06:37 40.34794 2.27462 34988 ft 450 kts 176°
2026-05-08 06:38 40.28637 2.29052 34990 ft 450 kts 176°
2026-05-08 06:38 40.22474 2.30631 34961 ft 452 kts 177°
2026-05-08 06:39 40.16337 2.32200 34984 ft 452 kts 177°
2026-05-08 06:39 40.10171 2.33772 34989 ft 452 kts 177°
2026-05-08 06:40 40.03999 2.35344 34984 ft 452 kts 177°
2026-05-08 06:40 39.97825 2.36913 34972 ft 451 kts 177°
2026-05-08 06:41 39.91659 2.38477 34978 ft 451 kts 177°
2026-05-08 06:41 39.85499 2.40037 34978 ft 451 kts 177°
2026-05-08 06:42 39.79337 2.41595 34977 ft 451 kts 177°
2026-05-08 06:42 39.73228 2.42247 34991 ft 429 kts 194°
2026-05-08 06:43 39.67256 2.41428 34980 ft 432 kts 194°
2026-05-08 06:43 39.61328 2.40556 34992 ft 431 kts 194°
2026-05-08 06:44 39.55484 2.39219 34939 ft 415 kts 210°
2026-05-08 06:44 39.53012 2.37424 34833 ft 400 kts 218°
2026-05-08 06:44 39.50694 2.35433 34093 ft 401 kts 219°
2026-05-08 06:45 39.48384 2.33368 33140 ft 406 kts 220°
2026-05-08 06:45 39.46070 2.31260 32320 ft 407 kts 220°
2026-05-08 06:45 39.43767 2.29139 31693 ft 405 kts 220°
2026-05-08 06:45 39.41487 2.27027 31083 ft 401 kts 220°
2026-05-08 06:46 39.39203 2.24905 30357 ft 409 kts 220°
2026-05-08 06:46 39.36868 2.22736 29463 ft 416 kts 219°
2026-05-08 06:46 39.34507 2.20544 28590 ft 421 kts 219°
2026-05-08 06:46 39.32118 2.18327 27717 ft 425 kts 219°
2026-05-08 06:47 39.29706 2.16091 26858 ft 429 kts 219°
2026-05-08 06:47 39.27268 2.13832 26169 ft 434 kts 219°
2026-05-08 06:47 39.24838 2.11583 25503 ft 436 kts 219°
2026-05-08 06:47 39.22369 2.09300 24827 ft 437 kts 218°
2026-05-08 06:48 39.19897 2.07017 24156 ft 436 kts 218°
2026-05-08 06:48 39.17438 2.04747 23473 ft 434 kts 218°
2026-05-08 06:48 39.14995 2.02494 22700 ft 429 kts 218°
2026-05-08 06:48 39.12577 2.00265 22009 ft 424 kts 218°
2026-05-08 06:49 39.10192 1.98069 21345 ft 419 kts 218°
2026-05-08 06:49 39.07832 1.95898 20715 ft 414 kts 218°
2026-05-08 06:49 39.05496 1.93751 20081 ft 410 kts 218°
2026-05-08 06:49 39.03178 1.91622 19450 ft 407 kts 218°
2026-05-08 06:50 39.00881 1.89514 18822 ft 404 kts 218°
2026-05-08 06:50 38.98707 1.87275 18073 ft 399 kts 229°
2026-05-08 06:50 38.97045 1.84445 17417 ft 394 kts 236°
2026-05-08 06:50 38.95508 1.81613 16836 ft 389 kts 237°
2026-05-08 06:51 38.93984 1.78761 16247 ft 385 kts 237°
2026-05-08 06:51 38.92484 1.75928 15652 ft 382 kts 237°
2026-05-08 06:51 38.91000 1.73107 15067 ft 380 kts 238°
2026-05-08 06:51 38.89518 1.70287 14456 ft 380 kts 238°
2026-05-08 06:52 38.88044 1.67479 13899 ft 378 kts 238°
2026-05-08 06:52 38.86580 1.64696 13471 ft 372 kts 238°
2026-05-08 06:52 38.85159 1.61993 13267 ft 360 kts 238°
2026-05-08 06:52 38.83896 1.59287 13054 ft 347 kts 250°
2026-05-08 06:53 38.83204 1.56387 12879 ft 334 kts 255°
2026-05-08 06:53 38.82562 1.53574 12728 ft 324 kts 255°
2026-05-08 06:53 38.81947 1.50842 12571 ft 314 kts 255°
2026-05-08 06:53 38.81354 1.48189 12416 ft 304 kts 255°
2026-05-08 06:54 38.80784 1.45626 12273 ft 294 kts 255°
2026-05-08 06:54 38.80218 1.43168 12137 ft 281 kts 250°
2026-05-08 06:54 38.79369 1.40962 11968 ft 271 kts 243°
2026-05-08 06:54 38.78507 1.38909 11843 ft 259 kts 243°
2026-05-08 06:55 38.77681 1.36927 11723 ft 249 kts 244°
2026-05-08 06:55 38.76876 1.34990 11601 ft 240 kts 244°
2026-05-08 06:55 38.76107 1.33136 11486 ft 231 kts 244°
2026-05-08 06:55 38.75350 1.31309 11383 ft 237 kts 243°
2026-05-08 06:56 38.74563 1.29410 11290 ft 245 kts 244°
2026-05-08 06:56 38.73754 1.27462 11131 ft 249 kts 243°
2026-05-08 06:56 38.72936 1.25501 10823 ft 251 kts 243°
2026-05-08 06:56 38.72116 1.23533 10524 ft 251 kts 243°
2026-05-08 06:57 38.71295 1.21563 10241 ft 249 kts 243°
2026-05-08 06:57 38.70480 1.19612 9960 ft 248 kts 243°
2026-05-08 06:57 38.69669 1.17666 9652 ft 247 kts 243°
2026-05-08 06:57 38.68861 1.15733 9360 ft 246 kts 243°
2026-05-08 06:58 38.68060 1.13817 9075 ft 243 kts 242°
2026-05-08 06:58 38.67262 1.11911 8787 ft 242 kts 243°
2026-05-08 06:58 38.66471 1.10022 8483 ft 240 kts 243°
2026-05-08 06:58 38.65687 1.08149 8234 ft 237 kts 242°
2026-05-08 06:59 38.64906 1.06280 8038 ft 240 kts 244°
2026-05-08 06:59 38.64424 1.04233 7695 ft 243 kts 261°
2026-05-08 06:59 38.64142 1.02081 7328 ft 247 kts 261°
2026-05-08 06:59 38.63882 0.99905 6954 ft 248 kts 267°
2026-05-08 07:00 38.64204 0.97760 6519 ft 248 kts 296°
2026-05-08 07:00 38.65311 0.96150 6151 ft 242 kts 333°
2026-05-08 07:00 38.66900 0.95702 5916 ft 232 kts
2026-05-08 07:00 38.68459 0.96143 5802 ft 228 kts 16°
2026-05-08 07:01 38.69882 0.96941 5637 ft 222 kts 38°
2026-05-08 07:01 38.70889 0.98409 5457 ft 220 kts 57°
2026-05-08 07:01 38.71701 1.00053 5304 ft 221 kts 58°
2026-05-08 07:01 38.72469 1.01749 5091 ft 220 kts 59°
2026-05-08 07:02 38.73211 1.03458 4898 ft 219 kts 60°
2026-05-08 07:02 38.73940 1.05167 4714 ft 218 kts 61°
2026-05-08 07:02 38.74661 1.06874 4522 ft 218 kts 61°
2026-05-08 07:02 38.75371 1.08578 4312 ft 216 kts 61°
2026-05-08 07:03 38.76084 1.10278 4103 ft 216 kts 61°
2026-05-08 07:03 38.76793 1.11977 3910 ft 216 kts 60°
2026-05-08 07:03 38.77496 1.13671 3701 ft 215 kts 61°
2026-05-08 07:03 38.78198 1.15362 3468 ft 214 kts 60°
2026-05-08 07:04 38.78893 1.17040 3212 ft 213 kts 61°
2026-05-08 07:04 38.79574 1.18684 2954 ft 209 kts 60°
2026-05-08 07:04 38.80242 1.20299 2697 ft 202 kts 60°
2026-05-08 07:04 38.80891 1.21863 2439 ft 196 kts 60°
2026-05-08 07:05 38.81514 1.23372 2179 ft 184 kts 61°
2026-05-08 07:05 38.82090 1.24764 1955 ft 174 kts 59°
2026-05-08 07:05 38.82655 1.26127 1718 ft 172 kts 60°
2026-05-08 07:05 38.83215 1.27483 1485 ft 169 kts 59°
2026-05-08 07:06 38.83735 1.28738 1278 ft 148 kts 60°
2026-05-08 07:06 38.84194 1.29850 1108 ft 139 kts 60°
2026-05-08 07:06 38.84647 1.30943 900 ft 137 kts 59°
2026-05-08 07:06 38.85099 1.32027 714 ft 138 kts 60°
2026-05-08 07:07 38.85549 1.33120 542 ft 140 kts 60°
2026-05-08 07:07 38.86005 1.34232 349 ft 140 kts 61°
2026-05-08 07:07 38.86464 1.35326 154 ft 139 kts 59°
2026-05-08 07:07 38.86906 1.36397 12 ft 133 kts 61°
2026-05-08 07:08 38.87273 1.37274 15 ft 80 kts 63°
2026-05-08 07:08 38.87449 1.37701 12 ft 44 kts 57°
2026-05-08 07:08 38.87622 1.37890 12 ft 16 kts 29°
2026-05-08 07:08 38.87642 1.37904 12 ft 4 kts 28°
2026-05-08 07:09 38.87651 1.37910 12 ft 0 kts 28°
2026-05-08 07:10 38.87656 1.37913 12 ft 3 kts 28°
2026-05-08 07:10 38.87685 1.37924 12 ft 5 kts 350°
2026-05-08 07:10 38.87699 1.37898 12 ft 4 kts 287°
2026-05-08 07:11 38.87693 1.37852 11 ft 7 kts 249°